| time (UTC) | temp F | wind direction | speed MPH | gust MPH | rain 1hr in | rain 24hr in | rain mn in | humidity % | barometer mb |
| 20260507100300 | 62 | 325 | 2.0 | 6.0 | 0.00 | 0.11 | 0.00 | 73 | 1014.0 |
| 20260507095758 | 61 | 231 | 2.0 | 6.0 | 0.00 | 0.11 | 0.00 | 74 | 1014.1 |
| 20260507094758 | 61 | 171 | 2.0 | 6.0 | 0.00 | 0.11 | 0.00 | 77 | 1014.1 |
| 20260507094258 | 60 | 168 | 2.0 | 6.0 | 0.00 | 0.11 | 0.00 | 76 | 1014.1 |
| 20260507093758 | 60 | 183 | 2.0 | 6.0 | 0.00 | 0.11 | 0.00 | 76 | 1014.1 |
| 20260507092758 | 60 | 177 | 2.0 | 6.0 | 0.00 | 0.11 | 0.00 | 78 | 1014.1 |
| 20260507092258 | 60 | 177 | 2.0 | 5.0 | 0.00 | 0.11 | 0.00 | 79 | 1014.1 |
| 20260507091758 | 60 | 187 | 2.0 | 5.0 | 0.00 | 0.11 | 0.00 | 78 | 1014.1 |
| 20260507091258 | 60 | 321 | 2.0 | 5.0 | 0.00 | 0.11 | 0.00 | 79 | 1014.2 |
| 20260507090758 | 59 | 120 | 2.0 | 5.0 | 0.00 | 0.11 | 0.00 | 82 | 1014.2 |
| 20260507085759 | 59 | 191 | 2.0 | 5.0 | 0.00 | 0.11 | 0.00 | 81 | 1014.2 |
| 20260507084758 | 59 | 34 | 0.0 | 2.0 | 0.00 | 0.11 | 0.00 | 82 | 1014.2 |
| 20260507084258 | 58 | 275 | 2.0 | 2.0 | 0.00 | 0.11 | 0.00 | 82 | 1014.3 |
| 20260507083258 | 57 | 241 | 2.0 | 5.0 | 0.00 | 0.11 | 0.00 | 84 | 1014.3 |
| 20260507082758 | 56 | 341 | 2.0 | 5.0 | 0.00 | 0.11 | 0.00 | 84 | 1014.3 |
| 20260507082258 | 56 | 187 | 2.0 | 3.0 | 0.00 | 0.11 | 0.00 | 85 | 1014.3 |
| 20260507081758 | 56 | 290 | 2.0 | 5.0 | 0.00 | 0.11 | 0.00 | 86 | 1014.3 |
| 20260507081258 | 55 | 266 | 2.0 | 5.0 | 0.00 | 0.13 | 0.00 | 86 | 1014.3 |
| 20260507080759 | 55 | 322 | 2.0 | 5.0 | 0.00 | 0.13 | 0.00 | 86 | 1014.3 |
| 20260507080258 | 54 | 273 | 2.0 | 3.0 | 0.00 | 0.14 | 0.00 | 87 | 1014.3 |
| 20260507075258 | 53 | 245 | 1.0 | 3.0 | 0.00 | 0.15 | 0.00 | 88 | 1014.2 |
| 20260507074758 | 53 | 268 | 1.0 | 3.0 | 0.00 | 0.15 | 0.00 | 89 | 1014.2 |
| 20260507074258 | 53 | 283 | 0.0 | 3.0 | 0.00 | 0.16 | 0.00 | 90 | 1014.2 |
| 20260507073759 | 53 | 241 | 0.0 | 2.0 | 0.00 | 0.17 | 0.00 | 92 | 1014.2 |
| 20260507072758 | 53 | 263 | 0.0 | 2.0 | 0.00 | 0.18 | 0.00 | 94 | 1014.2 |
| 20260507072259 | 53 | 263 | 0.0 | 2.0 | 0.00 | 0.18 | 0.00 | 94 | 1014.2 |
| 20260507071803 | 53 | 263 | 0.0 | 2.0 | 0.00 | 0.18 | 0.00 | 94 | 1014.2 |
| 20260507071259 | 53 | 263 | 0.0 | 2.0 | 0.00 | 0.19 | 0.00 | 94 | 1014.1 |
| 20260507070758 | 52 | 263 | 0.0 | 2.0 | 0.00 | 0.20 | 0.00 | 94 | 1014.1 |
| 20260507070258 | 52 | 263 | 0.0 | 2.0 | 0.00 | 0.21 | 0.00 | 94 | 1014.1 |
| 20260507065258 | 52 | 262 | 1.0 | 3.0 | 0.00 | 0.25 | 0.00 | 94 | 1014.2 |
| 20260507064758 | 52 | 262 | 1.0 | 3.0 | 0.00 | 0.26 | 0.00 | 94 | 1014.2 |
| 20260507064259 | 52 | 200 | 0.0 | 3.0 | 0.00 | 0.27 | 0.00 | 94 | 1014.3 |
| 20260507063759 | 52 | 242 | 0.0 | 2.0 | 0.00 | 0.28 | 0.00 | 94 | 1014.3 |
| 20260507063259 | 52 | 186 | 0.0 | 2.0 | 0.00 | 0.29 | 0.00 | 94 | 1014.3 |
| 20260507062758 | 52 | 186 | 0.0 | 2.0 | 0.00 | 0.31 | 0.00 | 94 | 1014.3 |
| 20260507062259 | 52 | 186 | 0.0 | 2.0 | 0.00 | 0.32 | 0.00 | 94 | 1014.3 |
| 20260507061759 | 52 | 184 | 0.0 | 2.0 | 0.00 | 0.34 | 0.00 | 94 | 1014.3 |
| 20260507061258 | 52 | 181 | 0.0 | 2.0 | 0.00 | 0.34 | 0.00 | 94 | 1014.2 |
| 20260507060758 | 52 | 182 | 0.0 | 2.0 | 0.00 | 0.35 | 0.00 | 94 | 1014.2 |
| 20260507060259 | 52 | 181 | 0.0 | 2.0 | 0.00 | 0.37 | 0.00 | 94 | 1014.2 |
| 20260507055759 | 52 | 177 | 0.0 | 2.0 | 0.00 | 0.37 | 0.00 | 94 | 1014.1 |
| 20260507055258 | 52 | 187 | 0.0 | 2.0 | 0.00 | 0.38 | 0.00 | 94 | 1014.1 |
| 20260507054758 | 52 | 234 | 0.0 | 2.0 | 0.00 | 0.39 | 0.00 | 94 | 1014.1 |
| 20260507054259 | 52 | 234 | 2.0 | 2.0 | 0.00 | 0.39 | 0.00 | 94 | 1014.0 |
| 20260507053758 | 52 | 234 | 2.0 | 5.0 | 0.00 | 0.40 | 0.00 | 93 | 1014.0 |
| 20260507053259 | 52 | 234 | 1.0 | 5.0 | 0.00 | 0.40 | 0.00 | 93 | 1014.0 |
| 20260507052758 | 51 | 281 | 1.0 | 3.0 | 0.00 | 0.42 | 0.00 | 92 | 1013.9 |
| 20260507051759 | 51 | 283 | 0.0 | 2.0 | 0.00 | 0.42 | 0.00 | 93 | 1013.9 |
| 20260507051259 | 51 | 283 | 0.0 | 3.0 | 0.00 | 0.42 | 0.00 | 93 | 1013.8 |
| 20260507050300 | 51 | 1 | 1.0 | 2.0 | 0.00 | 0.42 | 0.00 | 93 | 1013.8 |
| 20260507045759 | 51 | 1 | 1.0 | 2.0 | 0.00 | 0.42 | 0.00 | 93 | 1013.7 |
| 20260507045258 | 51 | 354 | 2.0 | 2.0 | 0.00 | 0.42 | 0.00 | 93 | 1013.7 |
| 20260507044758 | 51 | 286 | 2.0 | 5.0 | 0.00 | 0.42 | 0.00 | 93 | 1013.7 |
| 20260507044258 | 51 | 286 | 2.0 | 5.0 | 0.00 | 0.42 | 0.00 | 93 | 1013.5 |
| 20260507043759 | 51 | 264 | 2.0 | 5.0 | 0.00 | 0.42 | 0.00 | 92 | 1013.5 |
| 20260507043258 | 51 | 291 | 2.0 | 5.0 | 0.00 | 0.42 | 0.00 | 92 | 1013.5 |
| 20260507042758 | 51 | 272 | 2.0 | 5.0 | 0.00 | 0.42 | 0.00 | 92 | 1013.3 |
| 20260507041758 | 51 | 285 | 2.0 | 6.0 | 0.00 | 0.42 | 0.00 | 92 | 1013.3 |
| 20260507041259 | 51 | 281 | 1.0 | 6.0 | 0.00 | 0.42 | 0.00 | 92 | 1013.3 |
| 20260507040759 | 51 | 284 | 1.0 | 6.0 | 0.00 | 0.42 | 0.00 | 92 | 1013.3 |
| 20260507040259 | 50 | 357 | 2.0 | 6.0 | 0.00 | 0.42 | 0.00 | 93 | 1013.3 |
| 20260507035759 | 50 | 251 | 2.0 | 6.0 | 0.00 | 0.42 | 0.00 | 92 | 1013.3 |
| 20260507035259 | 50 | 308 | 2.0 | 5.0 | 0.00 | 0.42 | 0.00 | 93 | 1013.3 |
| 20260507034758 | 50 | 281 | 2.0 | 6.0 | 0.00 | 0.42 | 0.00 | 94 | 1013.3 |
| 20260507034259 | 50 | 305 | 2.0 | 6.0 | 0.00 | 0.42 | 0.00 | 94 | 1013.2 |
| 20260507033759 | 50 | 305 | 2.0 | 6.0 | 0.00 | 0.42 | 0.00 | 94 | 1013.2 |
| 20260507033300 | 50 | 274 | 2.0 | 5.0 | 0.00 | 0.42 | 0.00 | 94 | 1013.2 |
| 20260507032758 | 50 | 57 | 2.0 | 5.0 | 0.00 | 0.42 | 0.00 | 94 | 1013.0 |
| 20260507032259 | 50 | 276 | 2.0 | 5.0 | 0.00 | 0.42 | 0.00 | 95 | 1013.0 |
| 20260507031758 | 50 | 351 | 2.0 | 3.0 | 0.00 | 0.42 | 0.00 | 95 | 1013.0 |
| 20260507031259 | 50 | 4 | 2.0 | 5.0 | 0.00 | 0.42 | 0.00 | 95 | 1012.9 |
| 20260507025758 | 50 | 323 | 0.0 | 3.0 | 0.00 | 0.42 | 0.00 | 95 | 1012.8 |
| 20260507025259 | 50 | 282 | 0.0 | 2.0 | 0.00 | 0.42 | 0.00 | 95 | 1012.8 |
| 20260507024759 | 51 | 282 | 0.0 | 2.0 | 0.00 | 0.42 | 0.00 | 95 | 1012.8 |
| 20260507024300 | 51 | 282 | 0.0 | 2.0 | 0.00 | 0.42 | 0.00 | 95 | 1013.1 |
| 20260507023759 | 51 | 296 | 0.0 | 0.0 | 0.00 | 0.42 | 0.00 | 95 | 1013.1 |
| 20260507022759 | 51 | 281 | 0.0 | 2.0 | 0.00 | 0.42 | 0.00 | 95 | 1013.2 |
| 20260507022300 | 51 | 281 | 0.0 | 3.0 | 0.00 | 0.42 | 0.00 | 95 | 1013.2 |
| 20260507021759 | 51 | 281 | 0.0 | 3.0 | 0.00 | 0.42 | 0.00 | 95 | 1013.2 |
| 20260507021258 | 51 | 32 | 0.0 | 3.0 | 0.00 | 0.42 | 0.00 | 95 | 1013.2 |
| 20260507020759 | 51 | 68 | 0.0 | 2.0 | 0.00 | 0.42 | 0.00 | 95 | 1013.2 |
| 20260507015759 | 51 | 68 | 0.0 | 2.0 | 0.00 | 0.42 | 0.00 | 95 | 1013.1 |
| 20260507014800 | 51 | 69 | 1.0 | 5.0 | 0.00 | 0.42 | 0.00 | 95 | 1013.1 |
| 20260507014259 | 51 | 69 | 0.0 | 5.0 | 0.00 | 0.42 | 0.00 | 95 | 1013.0 |
| 20260507013259 | 51 | 28 | 0.0 | 1.0 | 0.00 | 0.42 | 0.00 | 95 | 1013.0 |
| 20260507012759 | 51 | 28 | 0.0 | 2.0 | 0.00 | 0.42 | 0.00 | 95 | 1012.9 |
| 20260507011759 | 52 | 28 | 0.0 | 2.0 | 0.00 | 0.42 | 0.00 | 95 | 1012.9 |
| 20260507010759 | 52 | 51 | 0.0 | 2.0 | 0.00 | 0.42 | 0.00 | 95 | 1012.9 |
| 20260507010259 | 52 | 51 | 0.0 | 2.0 | 0.00 | 0.42 | 0.00 | 95 | 1012.9 |
| 20260507005800 | 52 | 52 | 0.0 | 2.0 | 0.00 | 0.42 | 0.00 | 96 | 1012.9 |
| 20260507004759 | 52 | 52 | 1.0 | 2.0 | 0.00 | 0.42 | 0.00 | 95 | 1012.9 |
| 20260507004259 | 52 | 52 | 0.0 | 3.0 | 0.00 | 0.42 | 0.00 | 95 | 1012.8 |
| 20260507003758 | 52 | 52 | 0.0 | 3.0 | 0.00 | 0.42 | 0.00 | 96 | 1012.8 |
| 20260507003259 | 52 | 274 | 1.0 | 3.0 | 0.00 | 0.42 | 0.00 | 96 | 1012.8 |
| 20260507002759 | 52 | 274 | 1.0 | 3.0 | 0.00 | 0.42 | 0.00 | 96 | 1012.9 |
| 20260507001800 | 52 | 311 | 1.0 | 3.0 | 0.00 | 0.42 | 0.00 | 96 | 1012.9 |
| 20260507000759 | 52 | 339 | 1.0 | 5.0 | 0.00 | 0.42 | 0.00 | 96 | 1012.9 |
| 20260507000259 | 52 | 250 | 0.0 | 3.0 | 0.00 | 0.42 | 0.00 | 95 | 1012.9 |
| 20260506235759 | 52 | 223 | 0.0 | 2.0 | 0.00 | 0.42 | 0.00 | 95 | 1012.8 |
| 20260506235259 | 52 | 223 | 0.0 | 2.0 | 0.00 | 0.42 | 0.00 | 95 | 1012.8 |
| 20260506234800 | 52 | 223 | 0.0 | 2.0 | 0.00 | 0.42 | 0.00 | 95 | 1012.8 |
| 20260506234300 | 52 | 223 | 1.0 | 3.0 | 0.00 | 0.42 | 0.00 | 95 | 1012.8 |
| 20260506233259 | 53 | 282 | 1.0 | 2.0 | 0.00 | 0.42 | 0.00 | 95 | 1012.8 |
| 20260506232759 | 53 | 294 | 1.0 | 2.0 | 0.00 | 0.42 | 0.00 | 95 | 1012.8 |
| 20260506232259 | 53 | 294 | 1.0 | 2.0 | 0.00 | 0.42 | 0.00 | 95 | 1012.8 |
| 20260506231759 | 53 | 240 | 1.0 | 3.0 | 0.00 | 0.42 | 0.00 | 95 | 1012.8 |
| 20260506231259 | 53 | 240 | 0.0 | 3.0 | 0.00 | 0.42 | 0.00 | 95 | 1012.8 |
| 20260506230259 | 53 | 159 | 0.0 | 2.0 | 0.00 | 0.42 | 0.00 | 95 | 1012.8 |
| 20260506225759 | 53 | 158 | 0.0 | 2.0 | 0.00 | 0.42 | 0.00 | 95 | 1012.8 |
| 20260506225259 | 53 | 158 | 1.0 | 2.0 | 0.00 | 0.42 | 0.00 | 95 | 1012.8 |
| 20260506224800 | 53 | 159 | 1.0 | 2.0 | 0.00 | 0.42 | 0.00 | 95 | 1012.8 |
| 20260506224300 | 53 | 159 | 0.0 | 2.0 | 0.00 | 0.42 | 0.00 | 95 | 1012.9 |
| 20260506223759 | 53 | 295 | 0.0 | 2.0 | 0.00 | 0.42 | 0.00 | 95 | 1012.9 |
| 20260506223259 | 53 | 318 | 1.0 | 3.0 | 0.00 | 0.42 | 0.00 | 95 | 1012.9 |
| 20260506221759 | 53 | 274 | 0.0 | 0.0 | 0.00 | 0.42 | 0.00 | 95 | 1012.8 |
| 20260506221259 | 53 | 283 | 2.0 | 3.0 | 0.00 | 0.42 | 0.00 | 95 | 1012.7 |
| 20260506220844 | 53 | 283 | 2.0 | 5.0 | 0.00 | 0.42 | 0.00 | 95 | 1012.7 |
| 20260506220301 | 53 | 283 | 2.0 | 5.0 | 0.00 | 0.42 | 0.00 | 95 | 1012.7 |
| 20260506215800 | 54 | 296 | 2.0 | 3.0 | 0.00 | 0.42 | 0.42 | 95 | 1012.7 |
| 20260506215259 | 54 | 46 | 2.0 | 3.0 | 0.00 | 0.42 | 0.42 | 95 | 1012.7 |
| 20260506214759 | 54 | 60 | 2.0 | 5.0 | 0.00 | 0.42 | 0.42 | 95 | 1012.7 |
| 20260506214259 | 54 | 283 | 0.0 | 5.0 | 0.00 | 0.42 | 0.42 | 95 | 1012.7 |
| 20260506213759 | 54 | 24 | 0.0 | 3.0 | 0.00 | 0.42 | 0.42 | 95 | 1012.7 |
| 20260506213300 | 54 | 161 | 1.0 | 3.0 | 0.00 | 0.42 | 0.42 | 95 | 1012.7 |
| 20260506212759 | 54 | 59 | 1.0 | 3.0 | 0.00 | 0.42 | 0.42 | 95 | 1012.9 |
| 20260506212259 | 54 | 281 | 0.0 | 3.0 | 0.00 | 0.42 | 0.42 | 95 | 1012.9 |
| 20260506211759 | 54 | 182 | 0.0 | 3.0 | 0.00 | 0.42 | 0.42 | 95 | 1012.9 |
| 20260506211259 | 54 | 283 | 0.0 | 0.0 | 0.00 | 0.42 | 0.42 | 95 | 1012.6 |
| 20260506210800 | 54 | 281 | 0.0 | 0.0 | 0.00 | 0.42 | 0.42 | 95 | 1012.6 |
| 20260506210259 | 54 | 281 | 1.0 | 3.0 | 0.00 | 0.42 | 0.42 | 95 | 1012.6 |
| 20260506205759 | 54 | 281 | 1.0 | 3.0 | 0.00 | 0.42 | 0.42 | 95 | 1012.7 |
| 20260506205300 | 54 | 119 | 0.0 | 2.0 | 0.00 | 0.42 | 0.42 | 95 | 1012.7 |
| 20260506204759 | 55 | 261 | 0.0 | 2.0 | 0.00 | 0.42 | 0.42 | 95 | 1012.7 |
| 20260506204259 | 54 | 150 | 2.0 | 5.0 | 0.00 | 0.42 | 0.42 | 95 | 1012.5 |
| 20260506203759 | 55 | 148 | 2.0 | 5.0 | 0.00 | 0.42 | 0.42 | 95 | 1012.5 |
| 20260506203300 | 55 | 268 | 0.0 | 5.0 | 0.00 | 0.42 | 0.42 | 95 | 1012.5 |
| 20260506202759 | 55 | 0 | 0.0 | 2.0 | 0.00 | 0.42 | 0.42 | 95 | 1012.5 |
| 20260506202259 | 54 | 279 | 0.0 | 2.0 | 0.00 | 0.42 | 0.42 | 95 | 1012.5 |
| 20260506201801 | 54 | 340 | 0.0 | 0.0 | 0.00 | 0.42 | 0.42 | 95 | 1012.5 |
| 20260506201259 | 55 | 340 | 1.0 | 0.0 | 0.00 | 0.42 | 0.42 | 95 | 1012.5 |
| 20260506200759 | 54 | 340 | 1.0 | 2.0 | 0.00 | 0.42 | 0.42 | 95 | 1012.5 |
| 20260506200259 | 54 | 268 | 2.0 | 5.0 | 0.00 | 0.42 | 0.42 | 95 | 1012.5 |
| 20260506195759 | 54 | 268 | 2.0 | 5.0 | 0.00 | 0.42 | 0.42 | 95 | 1012.4 |
| 20260506195300 | 54 | 253 | 0.0 | 5.0 | 0.00 | 0.42 | 0.42 | 95 | 1012.4 |
| 20260506194759 | 54 | 279 | 0.0 | 5.0 | 0.00 | 0.42 | 0.42 | 95 | 1012.4 |
| 20260506194259 | 54 | 66 | 0.0 | 0.0 | 0.00 | 0.42 | 0.42 | 94 | 1012.2 |
| 20260506193759 | 54 | 66 | 0.0 | 0.0 | 0.00 | 0.42 | 0.42 | 94 | 1012.2 |
| 20260506193259 | 55 | 66 | 0.0 | 0.0 | 0.00 | 0.42 | 0.42 | 94 | 1012.2 |
| 20260506192759 | 55 | 66 | 0.0 | 0.0 | 0.00 | 0.42 | 0.42 | 94 | 1011.9 |
| 20260506192300 | 55 | 286 | 0.0 | 0.0 | 0.00 | 0.42 | 0.42 | 94 | 1011.9 |
| 20260506191300 | 55 | 287 | 0.0 | 0.0 | 0.00 | 0.42 | 0.42 | 94 | 1012.0 |
| 20260506190759 | 55 | 287 | 0.0 | 0.0 | 0.00 | 0.42 | 0.42 | 94 | 1012.0 |
| 20260506190259 | 55 | 287 | 0.0 | 0.0 | 0.00 | 0.42 | 0.42 | 94 | 1012.0 |
| 20260506185759 | 55 | 287 | 0.0 | 0.0 | 0.00 | 0.42 | 0.42 | 94 | 1011.9 |
| 20260506185300 | 56 | 287 | 0.0 | 0.0 | 0.00 | 0.42 | 0.42 | 94 | 1011.9 |
| 20260506184759 | 56 | 287 | 0.0 | 0.0 | 0.00 | 0.42 | 0.42 | 94 | 1011.9 |
| 20260506184300 | 56 | 287 | 0.0 | 0.0 | 0.00 | 0.42 | 0.42 | 94 | 1011.8 |
| 20260506183800 | 56 | 287 | 0.0 | 0.0 | 0.00 | 0.42 | 0.42 | 94 | 1011.8 |
| 20260506182800 | 56 | 287 | 0.0 | 0.0 | 0.00 | 0.42 | 0.42 | 94 | 1011.6 |
| 20260506182300 | 56 | 287 | 0.0 | 0.0 | 0.00 | 0.42 | 0.42 | 94 | 1011.6 |
| 20260506181800 | 56 | 287 | 0.0 | 0.0 | 0.00 | 0.42 | 0.42 | 94 | 1011.6 |
| 20260506181300 | 56 | 287 | 0.0 | 0.0 | 0.00 | 0.42 | 0.42 | 94 | 1011.4 |
| 20260506180300 | 56 | 287 | 0.0 | 0.0 | 0.00 | 0.42 | 0.42 | 93 | 1011.4 |
| 20260506175759 | 56 | 3 | 0.0 | 0.0 | 0.00 | 0.42 | 0.42 | 93 | 1011.4 |
| 20260506175300 | 56 | 2 | 0.0 | 0.0 | 0.00 | 0.43 | 0.42 | 93 | 1011.4 |
| 20260506174800 | 56 | 3 | 0.0 | 0.0 | 0.00 | 0.43 | 0.42 | 93 | 1011.4 |
| 20260506174300 | 57 | 5 | 0.0 | 0.0 | 0.00 | 0.43 | 0.42 | 94 | 1011.3 |
| 20260506173300 | 57 | 278 | 0.0 | 0.0 | 0.00 | 0.44 | 0.42 | 94 | 1011.3 |
| 20260506172759 | 57 | 358 | 0.0 | 1.0 | 0.00 | 0.44 | 0.42 | 94 | 1011.0 |
| 20260506172259 | 57 | 0 | 0.0 | 1.0 | 0.00 | 0.44 | 0.42 | 94 | 1011.0 |
| 20260506171759 | 57 | 272 | 0.0 | 0.0 | 0.00 | 0.44 | 0.42 | 94 | 1011.0 |
| 20260506171300 | 57 | 254 | 0.0 | 0.0 | 0.00 | 0.45 | 0.42 | 94 | 1010.9 |
| 20260506170800 | 57 | 254 | 0.0 | 0.0 | 0.00 | 0.45 | 0.42 | 94 | 1010.9 |
| 20260506170259 | 57 | 254 | 0.0 | 0.0 | 0.00 | 0.45 | 0.42 | 94 | 1010.9 |
| 20260506165759 | 57 | 254 | 0.0 | 0.0 | 0.00 | 0.45 | 0.42 | 94 | 1010.8 |
| 20260506165259 | 57 | 254 | 0.0 | 0.0 | 0.00 | 0.45 | 0.42 | 94 | 1010.8 |
| 20260506164800 | 57 | 279 | 0.0 | 0.0 | 0.00 | 0.45 | 0.42 | 94 | 1010.8 |
| 20260506164259 | 57 | 281 | 0.0 | 0.0 | 0.00 | 0.45 | 0.42 | 94 | 1010.7 |
| 20260506163800 | 57 | 281 | 0.0 | 2.0 | 0.00 | 0.46 | 0.42 | 94 | 1010.7 |
| 20260506163300 | 57 | 281 | 1.0 | 3.0 | 0.00 | 0.46 | 0.42 | 94 | 1010.7 |
| 20260506162759 | 57 | 281 | 1.0 | 3.0 | 0.00 | 0.46 | 0.42 | 94 | 1011.0 |
| 20260506162259 | 57 | 212 | 1.0 | 3.0 | 0.00 | 0.46 | 0.42 | 94 | 1011.0 |
| 20260506161759 | 57 | 209 | 1.0 | 3.0 | 0.00 | 0.46 | 0.42 | 94 | 1011.0 |
| 20260506161259 | 57 | 143 | 1.0 | 3.0 | 0.00 | 0.46 | 0.42 | 94 | 1010.9 |
| 20260506160800 | 57 | 130 | 1.0 | 5.0 | 0.00 | 0.46 | 0.42 | 94 | 1010.9 |
| 20260506160300 | 57 | 127 | 1.0 | 5.0 | 0.00 | 0.46 | 0.42 | 95 | 1010.9 |
| 20260506155800 | 57 | 114 | 1.0 | 3.0 | 0.00 | 0.48 | 0.42 | 95 | 1010.9 |
| 20260506155300 | 57 | 179 | 1.0 | 5.0 | 0.00 | 0.48 | 0.42 | 95 | 1010.9 |
| 20260506154800 | 57 | 178 | 1.0 | 5.0 | 0.00 | 0.48 | 0.42 | 95 | 1010.9 |
| 20260506154300 | 57 | 272 | 1.0 | 3.0 | 0.00 | 0.48 | 0.42 | 95 | 1010.9 |
| 20260506153259 | 57 | 217 | 0.0 | 3.0 | 0.00 | 0.48 | 0.42 | 95 | 1010.9 |
| 20260506152800 | 57 | 220 | 0.0 | 0.0 | 0.00 | 0.48 | 0.42 | 96 | 1011.2 |
| 20260506152300 | 56 | 219 | 0.0 | 0.0 | 0.00 | 0.48 | 0.42 | 95 | 1011.2 |
| 20260506151800 | 56 | 220 | 0.0 | 0.0 | 0.00 | 0.48 | 0.42 | 95 | 1011.2 |
| 20260506151259 | 56 | 219 | 0.0 | 0.0 | 0.00 | 0.48 | 0.42 | 95 | 1011.1 |
| 20260506150759 | 56 | 218 | 0.0 | 0.0 | 0.00 | 0.49 | 0.42 | 95 | 1011.1 |
| 20260506150304 | 56 | 218 | 0.0 | 2.0 | 0.00 | 0.49 | 0.42 | 95 | 1011.1 |
| 20260506145300 | 56 | 218 | 0.0 | 3.0 | 0.00 | 0.49 | 0.42 | 94 | 1011.2 |
| 20260506144800 | 56 | 20 | 0.0 | 2.0 | 0.00 | 0.49 | 0.42 | 94 | 1011.2 |
| 20260506142801 | 56 | 245 | 2.0 | 5.0 | 0.00 | 0.49 | 0.42 | 94 | 1011.2 |
| 20260506142300 | 57 | 218 | 1.0 | 5.0 | 0.01 | 0.49 | 0.42 | 95 | 1011.2 |
| 20260506141800 | 57 | 222 | 1.0 | 5.0 | 0.01 | 0.49 | 0.42 | 96 | 1011.2 |
| 20260506141300 | 56 | 192 | 2.0 | 5.0 | 0.01 | 0.49 | 0.42 | 96 | 1011.2 |
| 20260506140800 | 56 | 192 | 2.0 | 5.0 | 0.02 | 0.49 | 0.42 | 96 | 1011.2 |
| 20260506140300 | 56 | 259 | 2.0 | 6.0 | 0.02 | 0.49 | 0.42 | 95 | 1011.2 |
| 20260506135800 | 56 | 156 | 2.0 | 9.0 | 0.03 | 0.49 | 0.42 | 95 | 1011.1 |
| 20260506135301 | 56 | 170 | 2.0 | 9.0 | 0.05 | 0.49 | 0.42 | 95 | 1011.1 |
| 20260506134759 | 56 | 134 | 2.0 | 8.0 | 0.07 | 0.49 | 0.42 | 96 | 1011.1 |
| 20260506134300 | 56 | 132 | 2.0 | 5.0 | 0.07 | 0.49 | 0.42 | 96 | 1011.5 |
| 20260506133800 | 56 | 171 | 2.0 | 3.0 | 0.07 | 0.49 | 0.42 | 95 | 1011.5 |
| 20260506133300 | 56 | 168 | 2.0 | 3.0 | 0.07 | 0.49 | 0.42 | 96 | 1011.5 |
| 20260506132800 | 56 | 168 | 2.0 | 3.0 | 0.07 | 0.49 | 0.42 | 95 | 1011.6 |
| 20260506132301 | 56 | 251 | 2.0 | 5.0 | 0.07 | 0.49 | 0.41 | 96 | 1011.6 |
| 20260506131259 | 55 | 145 | 1.0 | 5.0 | 0.08 | 0.49 | 0.41 | 95 | 1011.8 |
| 20260506130800 | 55 | 190 | 1.0 | 5.0 | 0.07 | 0.48 | 0.40 | 95 | 1011.8 |
| 20260506125800 | 56 | 75 | 0.0 | 3.0 | 0.06 | 0.48 | 0.39 | 95 | 1011.7 |
| 20260506124801 | 56 | 52 | 1.0 | 3.0 | 0.02 | 0.45 | 0.35 | 95 | 1011.7 |
| 20260506124300 | 56 | 52 | 0.0 | 2.0 | 0.02 | 0.45 | 0.35 | 95 | 1011.5 |
| 20260506123800 | 56 | 52 | 0.0 | 2.0 | 0.02 | 0.45 | 0.35 | 95 | 1011.5 |
| 20260506123300 | 56 | 52 | 1.0 | 3.0 | 0.02 | 0.45 | 0.35 | 95 | 1011.5 |
| 20260506122801 | 56 | 52 | 1.0 | 3.0 | 0.02 | 0.46 | 0.35 | 95 | 1011.7 |
| 20260506122300 | 56 | 69 | 0.0 | 2.0 | 0.01 | 0.45 | 0.34 | 95 | 1011.7 |
| 20260506121759 | 56 | 46 | 0.0 | 2.0 | 0.00 | 0.44 | 0.33 | 95 | 1011.7 |
| 20260506121301 | 56 | 43 | 1.0 | 2.0 | 0.00 | 0.44 | 0.33 | 95 | 1011.7 |
| 20260506120759 | 56 | 42 | 1.0 | 3.0 | 0.01 | 0.44 | 0.33 | 95 | 1011.7 |
| 20260506120300 | 56 | 80 | 1.0 | 3.0 | 0.01 | 0.44 | 0.33 | 95 | 1011.7 |
| 20260506115801 | 56 | 123 | 1.0 | 3.0 | 0.02 | 0.44 | 0.33 | 95 | 1011.8 |
| 20260506115300 | 56 | 79 | 0.0 | 3.0 | 0.02 | 0.44 | 0.33 | 96 | 1011.8 |
| 20260506114800 | 56 | 79 | 0.0 | 2.0 | 0.02 | 0.44 | 0.33 | 96 | 1011.8 |
| 20260506114301 | 56 | 79 | 0.0 | 2.0 | 0.02 | 0.44 | 0.33 | 96 | 1012.0 |
| 20260506113800 | 56 | 79 | 0.0 | 3.0 | 0.02 | 0.44 | 0.33 | 96 | 1012.0 |
| 20260506113301 | 56 | 79 | 0.0 | 3.0 | 0.02 | 0.44 | 0.33 | 96 | 1012.0 |
| 20260506112800 | 56 | 111 | 0.0 | 2.0 | 0.02 | 0.44 | 0.33 | 95 | 1012.1 |
| 20260506112301 | 56 | 111 | 0.0 | 2.0 | 0.02 | 0.44 | 0.33 | 96 | 1012.1 |
| 20260506111800 | 56 | 111 | 0.0 | 2.0 | 0.02 | 0.44 | 0.33 | 96 | 1012.1 |
| 20260506111300 | 56 | 111 | 0.0 | 2.0 | 0.02 | 0.44 | 0.33 | 96 | 1012.2 |
| 20260506105800 | 56 | 128 | 0.0 | 3.0 | 0.00 | 0.43 | 0.31 | 96 | 1012.3 |
| 20260506105300 | 56 | 178 | 0.0 | 2.0 | 0.00 | 0.43 | 0.31 | 96 | 1012.3 |
| 20260506104800 | 56 | 178 | 0.0 | 2.0 | 0.00 | 0.44 | 0.31 | 97 | 1012.3 |
| 20260506104300 | 56 | 217 | 0.0 | 0.0 | 0.00 | 0.44 | 0.31 | 97 | 1012.4 |
| 20260506103800 | 55 | 224 | 0.0 | 2.0 | 0.00 | 0.44 | 0.31 | 97 | 1012.4 |
| 20260506103300 | 55 | 224 | 2.0 | 2.0 | 0.00 | 0.46 | 0.31 | 96 | 1012.4 |
| 20260506102800 | 55 | 224 | 2.0 | 5.0 | 0.00 | 0.46 | 0.31 | 96 | 1012.5 |
| 20260506101800 | 55 | 238 | 1.0 | 5.0 | 0.00 | 0.48 | 0.31 | 96 | 1012.5 |
| 20260506100800 | 55 | 169 | 0.0 | 2.0 | 0.00 | 0.48 | 0.31 | 96 | 1012.4 |